Location: Newark
(44.6303°N, 123.0961°W)
Time: 18:45:51
(UTC+00:00)

Envisat - Pass Details

Date: 30 January 2020
Orbit: 764 x 766 km, 98.1° (Epoch: 19 February)

Event Time Altitude Azimuth Distance (km) Brightness Sun altitude
Rises 14:46:21 0° 15° (NNE) 3,242 6.2 -8.8°
Reaches altitude 10° 14:48:41 10° 18° (NNE) 2,311 5.5 -8.4°
Maximum altitude 14:53:46 69° 102° (ESE) 820 3.4 -7.5°
Drops below altitude 10° 14:58:48 10° 186° (S) 2,294 5.6 -6.6°
Sets 15:01:07 0° 188° (S) 3,215 6.4 -6.3°
